DTUSAT

Satellite information

Favourite Embed

Satellite Type and Status

PAYLOADIN ORBIT

Key statistics

Satellite DTUSAT at a glance.

Uptime

8147

Days in orbit

Revolutions

≈ 14.2

Per day

Orbit

SSO

Sun Synchronous Orbit

Inclination

98.7

Latest

Satellite identification and parameters

Extended collection of information and parameters for DTUSAT.

Object identification

Identified? True

Debris? False

Object name: DTUSAT

International designator: 2003-031C

Object number (NORAD): 27842

Object ID (CCSDS): 27842

Country: DENMARK (DEN)

Current information (Y/N): Y

RCS size: SMALL

Orbital parameters

Period: 101.141 minutes

Inclination: 98.6897 deg

SMA: 7190.831 km

Apoapsis: 819.889 km

Periapsis: 805.504 km

RAAN: 298.3502 deg

Eccentricy: 0.00100027

Argument of periapsis: 137.4596 deg

Mean anomaly: 222.7359 deg

Mean motion: 14.23751178 rev/day

Mean motion (dot): 0.00000463 rev/day2

B* drag term: 0.00022180878 1/REarth

Two-line elements (TLE)

Creation date: Oct. 19, 2025, 2:20 a.m.

Reference frame: TEME

Reference center: EARTH

Epoch: Oct. 18, 2025, 11:53 p.m. UTC

TLE line 0: 0 DTUSAT

TLE line 1: 1 27842U 03031C 25291.99575384 .00000463 00000-0 22181-3 0 9999

TLE line 2: 2 27842 98.6897 298.3502 0010003 137.4596 222.7359 14.23751178157495

Live tracking on map

Real-time ground track for satellite DTUSAT.

In-orbit conjunctions

A list of the most updated potential collisions computed for object DTUSAT.

Target Orbit TCA Probability of collision Miss distance Type
FENGYUN 1C DEB SSO 2025-10-17 14:24:08 0.0001993165 140.0 (m) DEBRIS
FENGYUN 1C DEB SSO 2025-09-03 16:43:49 0.0005949589 278.0 (m) DEBRIS
DELTA 1 DEB SSO 2025-05-29 18:26:31 0.002524826 126.0 (m) DEBRIS
CZ-6A DEB LEO 2025-05-28 19:33:04 0.0003517498 642.0 (m) DEBRIS
PEGASUS DEB LEO 2025-05-22 23:05:39 0.0002184941 305.0 (m) DEBRIS

Associated space launch

MIMOSA (Micro Measurements Of Satellite Acceleration) is a microsatellite to measure atmospheric drag.

DTUSAT was lifted into orbit during the mission ‘Rokot / Briz-KM | Mimosa’, on board a Rokot/Briz-KM space rocket.

The launch took place on June 30, 2003, 2:15 p.m. from 133/3 (133L).

For more information about the launch, click the button.

Launch to space Rokot / Briz-KM | Mimosa
Rokot / Briz-KM | Mimosa

Agency: N/A

Status: Launch Successful

Launch date: June 30, 2003, 2:15 p.m. UTC

Rocket: Rokot/Briz-KM

Launch pad: 133/3 (133L)

Location: Plesetsk Cosmodrome, Russian Federation

...

Latest news about this satellite

There are no fresh news available about this satellite. Check back as we update our databases every day.


Newsletter sign-up

Weekly statistics, charts and insights to help you stay on top of the space industry.